[[{"header":{"parameterUnit":"m.s-1","parameterCategory":1,"la1":30.2991,"la2":30.254,"lo1":-89.0895,"lo2":-89.0444,"dy":0.0017,"dx":0.0017,"nx":28,"ny":28,"refTime":"2025-09-02T09:00:00:Z","depth":0,"parameterNumber":2,"parameterNumberName":"U-component_of_WINDS"},"data":[0,0,0,0,0,0,0,0,0,0,0,0,0,0,0,0,0,0,0,0,0,0,0,0,0,0,0,0,0,0,0,0,0,0,0,0,0,0,0,0,0,0,0,0,0,0,0,0,0,0,0,0,0,0,0,0,0,0,-2.9302,-2.9303,0,-2.9341,-2.9341,-2.9342,-2.9195,-2.919,-2.9186,-2.9182,-2.9226,-2.9231,-2.9237,0,0,0,0,0,0,0,0,0,0,0,0,0,-2.9105,-2.9109,-2.9302,-2.9303,-2.9303,-2.9341,-2.9341,-2.9342,-2.9196,-2.919,-2.9185,-2.918,-2.9225,-2.9231,-2.9237,0,0,0,0,0,0,0,0,0,0,0,0,0,-2.9172,-2.9111,-2.9302,-2.9235,-2.9229,-2.9341,-2.9341,-2.9342,-2.9197,-2.919,-2.9184,-2.9177,-2.9223,-2.923,-2.9238,-2.9418,0,0,-2.9262,-2.9265,0,0,0,0,0,0,0,0,-2.9168,-2.9179,-2.9244,-2.9239,-2.9233,-2.9256,-2.9288,-2.9368,-2.9198,-2.9209,-2.9182,-2.9174,-2.9242,-2.9248,-2.927,-2.942,-2.9422,-2.9263,-2.9268,-2.9271,-2.9273,0,0,0,0,0,0,0,-2.9164,-2.9177,-2.9317,-2.9245,-2.9239,-2.9203,-2.9206,-2.9302,-2.9262,-2.9208,-2.9197,-2.9203,-2.9238,-2.9262,-2.927,-2.9423,-2.9263,-2.927,-2.9274,-2.9277,-2.9723,-2.973,0,0,0,0,0,0,-2.9168,-2.9174,-2.9316,-2.9319,-2.9184,-2.9212,-2.9215,-2.9256,-2.926,-2.9255,-2.9209,-2.9196,-2.9252,-2.926,-2.9271,-2.9482,-2.9271,-2.9278,-2.9283,-2.9716,-2.9725,-2.9732,0,0,0,0,0,0,-2.9164,-2.9182,-2.9315,-2.9243,-2.9258,-2.9223,-2.927,-2.926,-2.9284,-2.9261,-2.9254,-2.9241,-2.9247,-2.9259,-2.9382,-2.9482,-2.9282,-2.9289,-2.9708,-2.9719,-2.9728,-2.9907,0,0,0,0,0,0,-2.9159,-2.9181,-2.9249,-2.9246,-2.9262,-2.9425,-2.9276,-2.9265,-2.9298,-2.9282,-2.929,-2.9285,-2.9243,-2.9371,-2.939,-2.9489,-2.9295,-2.9699,-2.9713,-2.9725,-2.9893,-2.9923,-2.9949,0,0,0,0,0,-2.9152,-2.9298,-2.9253,-2.9271,-2.9345,-2.9431,-2.944,-2.9388,-2.9306,-2.9374,-2.9359,-2.9285,-2.9467,-2.9385,-2.9405,-2.9508,-2.9692,-2.9709,-2.9724,-2.988,-2.9917,-2.9948,0,0,0,0,0,0,-2.9316,-2.9297,-2.9246,-2.9395,-2.9416,-2.9406,-2.9491,-2.9429,-2.9474,-2.9458,-2.9391,-2.9395,-2.953,-2.953,-2.9439,-2.9682,-2.9566,-2.9587,-2.9677,-2.9712,-2.974,-2.9738,-2.9302,0,0,0,0,0,-2.9369,-2.9439,-2.9419,-2.9553,-2.9565,-2.9527,-2.9562,-2.9519,-2.9539,-2.9547,-2.9541,-2.9564,-2.9626,-2.9669,-2.9725,-2.9891,-2.9891,-2.9972,-3.0,-3.0023,-3.0043,-3.0131,-3.0167,-2.9785,-2.9785,-2.9784,0,0,-2.948,-2.9478,-2.9527,-2.9585,-2.9596,-2.9672,-2.9535,-2.962,-2.9676,-2.956,-2.9676,-2.9673,-2.9693,-2.9839,-2.9903,-2.9844,-3.0148,-3.0043,-3.0062,-3.0069,-3.0152,-3.0188,-3.022,-2.9796,-2.9794,-2.9792,0,0,-2.9721,-2.9726,-2.9838,-2.9851,-2.9868,-2.9841,-2.9869,-2.9868,-2.9861,-2.9975,-2.989,-2.9956,-3.0064,-3.0083,-3.0107,-3.0354,-3.0287,-3.0374,-3.0522,-3.061,-3.064,-3.0666,-3.0756,-3.0789,-3.0393,-3.0393,-3.0394,0,-2.9857,-2.9966,-2.9904,-2.9995,-3.0024,-2.992,-3.0034,-3.005,-3.0087,-3.0109,-3.0042,-3.0176,-3.0183,-3.0332,-3.0392,-3.0414,-3.0444,-3.0374,-3.064,-3.0666,-3.069,-3.0775,-3.0808,-3.0404,-3.0403,-3.0402,-3.0401,0,-3.0133,-3.021,-3.0299,-3.0334,-3.0373,-3.0475,-3.043,-3.0476,-3.043,-3.0411,-3.0529,-3.0533,-3.0588,-3.062,-3.0576,-3.0763,-3.0726,-3.0651,-3.0533,-3.0738,-3.0817,-3.0848,-3.0419,-3.0415,-3.0412,-3.0409,0,0,-3.0481,-3.0479,-3.0513,-3.0528,-3.0539,-3.0598,-3.0696,-3.0748,-3.079,-3.0818,-3.0899,-3.0993,-3.0923,-3.095,-3.0907,-3.0983,-3.1181,-3.0898,-3.0898,-3.0952,-3.1388,-3.1447,-3.1485,-3.1135,-3.1141,-3.1146,-3.1387,0,-3.0719,-3.0884,-3.0831,-3.0999,-3.107,-3.0972,-3.1057,-3.1074,-3.1058,-3.1117,-3.1099,-3.1168,-3.1069,-3.1085,-3.1156,-3.1142,-3.1268,-3.1123,-3.1213,-3.1217,-3.1213,-3.1526,-3.1588,-3.1816,-3.1417,-3.1423,-3.1426,0,-3.1019,-3.1057,-3.1233,-3.1231,-3.1259,-3.1336,-3.138,-3.1437,-3.1454,-3.1437,-3.1467,-3.1408,-3.1505,-3.1385,-3.1518,-3.1421,-3.1454,-3.1453,-3.146,-3.1469,-3.1336,-3.1545,-3.1887,-3.1922,-3.1474,-3.147,-3.1467,0,-3.1257,-3.1352,-3.1469,-3.1485,-3.1486,-3.1543,-3.1546,-3.1556,-3.1591,-3.163,-3.1652,-3.1702,-3.173,-3.1771,-3.1727,-3.1643,-3.1868,-3.1744,-3.1859,-3.186,-3.1913,-3.191,-3.2267,-3.1931,-3.193,-3.193,-3.1929,0,-3.153,-3.1641,-3.1576,-3.1649,-3.1771,-3.1708,-3.1832,-3.1824,-3.1834,-3.1904,-3.1822,-3.189,-3.1827,-3.189,-3.1857,-3.1973,-3.1986,-3.1977,-3.1967,-3.1985,-3.1987,-3.2008,-3.1992,-3.1939,-3.1937,-3.1935,-3.1933,0,-3.1817,-3.1778,-3.1899,-3.189,-3.189,-3.1981,-3.1973,-3.204,-3.2017,-3.2107,-3.2125,-3.209,-3.216,-3.212,-3.2191,-3.2168,-3.2321,-3.2288,-3.2315,-3.2307,-3.2425,-3.2415,-3.2809,-3.2858,-3.2489,-3.2493,-3.2495,0,-3.1995,-3.2078,-3.2077,-3.2117,-3.2126,-3.2192,-3.2226,-3.2168,-3.2208,-3.2233,-3.2298,-3.236,-3.2406,-3.2522,-3.2504,-3.2559,-3.2528,-3.2662,-3.2536,-3.2552,-3.2533,-3.2529,-3.2538,-3.2689,-3.2693,-3.2697,-3.27,0,-3.2316,-3.2291,-3.2344,-3.239,-3.2433,-3.2467,-3.2494,-3.2532,-3.2473,-3.2523,-3.2591,-3.2628,-3.2699,-3.2763,-3.2809,-3.2813,-3.2749,-3.2739,-3.2769,-3.279,-3.2803,-3.2799,-3.2387,-3.2731,-3.2728,-3.2726,-3.2724,-3.2723,-3.2555,-3.2624,-3.2634,-3.2695,-3.2709,-3.2736,-3.2799,-3.2783,-3.2839,-3.2892,-3.2854,-3.2937,-3.2951,-3.3006,-3.3019,-3.3084,-3.303,-3.3073,-3.3084,-3.3096,-3.3113,-3.279,-3.3092,-3.3091,-3.309,-3.3089,-3.3088,0,-3.2872,-3.2873,-3.293,-3.297,-3.3018,-3.2949,-3.2975,-3.3021,-3.3094,-3.3113,-3.3159,-3.3239,-3.33,-3.3286,-3.3341,-3.3396,-3.3367,-3.3412,-3.3409,-3.3411,-3.3157,-3.3126,-3.3434,-3.3434,-3.3434,-3.3434,-3.3434,-3.3434,-3.3043,-3.3158,-3.3135,-3.3256,-3.3256,-3.3334,-3.3356,-3.3381,-3.3395,-3.3487,-3.3536,-3.3526,-3.3532,-3.3587,-3.364,-3.3634,-3.3659,-3.3716,-3.37,-3.3463,-3.3429,-3.3397,-3.3368,-3.3721,-3.3722,-3.3949,-3.3951,-3.3953]},{"header":{"parameterUnit":"m.s-1","parameterCategory":1,"la1":30.2991,"la2":30.254,"lo1":-89.0895,"lo2":-89.0444,"dy":0.0017,"dx":0.0017,"nx":28,"ny":28,"refTime":"2025-09-02T09:00:00:Z","depth":0,"parameterNumber":3,"parameterNumberName":"V-component_of_WINDS"},"data":[0,0,0,0,0,0,0,0,0,0,0,0,0,0,0,0,0,0,0,0,0,0,0,0,0,0,0,0,0,0,0,0,0,0,0,0,0,0,0,0,0,0,0,0,0,0,0,0,0,0,0,0,0,0,0,0,0,0,-2.2913,-2.2913,0,-2.2935,-2.2935,-2.2936,-2.2958,-2.2959,-2.2959,-2.2959,-2.298,-2.298,-2.298,0,0,0,0,0,0,0,0,0,0,0,0,0,-2.2887,-2.2888,-2.2913,-2.2913,-2.2914,-2.2935,-2.2935,-2.2936,-2.2958,-2.2959,-2.2959,-2.2959,-2.298,-2.298,-2.298,0,0,0,0,0,0,0,0,0,0,0,0,0,-2.2903,-2.2888,-2.2913,-2.2928,-2.2929,-2.2935,-2.2935,-2.2936,-2.2958,-2.2959,-2.2959,-2.296,-2.2979,-2.298,-2.298,-2.2973,0,0,-2.2981,-2.2981,0,0,0,0,0,0,0,0,-2.2902,-2.2904,-2.2925,-2.2927,-2.2928,-2.2945,-2.2934,-2.2948,-2.2958,-2.2947,-2.2959,-2.296,-2.2967,-2.2969,-2.2972,-2.2974,-2.2975,-2.2981,-2.2982,-2.2982,-2.2982,0,0,0,0,0,0,0,-2.2901,-2.2903,-2.2922,-2.2925,-2.2927,-2.2932,-2.2935,-2.2937,-2.2954,-2.2948,-2.295,-2.2952,-2.2968,-2.2971,-2.2972,-2.2975,-2.2981,-2.2982,-2.2982,-2.2982,-2.297,-2.297,0,0,0,0,0,0,-2.2898,-2.2902,-2.2921,-2.2922,-2.2916,-2.2932,-2.2935,-2.2939,-2.2954,-2.2957,-2.2952,-2.2953,-2.2971,-2.2972,-2.2973,-2.2964,-2.2982,-2.2982,-2.2982,-2.2971,-2.297,-2.297,0,0,0,0,0,0,-2.2897,-2.2899,-2.292,-2.2913,-2.2916,-2.2932,-2.2936,-2.2939,-2.2942,-2.2957,-2.296,-2.2952,-2.2971,-2.2973,-2.2973,-2.2965,-2.2982,-2.2983,-2.2971,-2.2971,-2.297,-2.2947,0,0,0,0,0,0,-2.2896,-2.2899,-2.2897,-2.2912,-2.2916,-2.292,-2.2936,-2.2939,-2.2943,-2.2945,-2.2958,-2.2961,-2.2972,-2.2972,-2.2973,-2.2966,-2.2983,-2.2972,-2.2971,-2.297,-2.2949,-2.2946,-2.2943,0,0,0,0,0,-2.2895,-2.289,-2.2897,-2.2899,-2.2914,-2.292,-2.2921,-2.2935,-2.2942,-2.294,-2.2949,-2.296,-2.2966,-2.2972,-2.2973,-2.2966,-2.2973,-2.2971,-2.297,-2.295,-2.2946,-2.2943,0,0,0,0,0,0,-2.2873,-2.2892,-2.29,-2.29,-2.2908,-2.2923,-2.2921,-2.2931,-2.2936,-2.2938,-2.2954,-2.2956,-2.2954,-2.296,-2.2966,-2.2959,-2.2971,-2.297,-2.2955,-2.2952,-2.2949,-2.2947,-2.2983,0,0,0,0,0,-2.2868,-2.2872,-2.2888,-2.2886,-2.289,-2.2905,-2.2907,-2.2917,-2.2926,-2.2929,-2.2938,-2.2946,-2.2949,-2.2951,-2.2955,-2.295,-2.2952,-2.2946,-2.2943,-2.2941,-2.2939,-2.2935,-2.2932,-2.2966,-2.2966,-2.2966,0,0,-2.2858,-2.2869,-2.287,-2.2882,-2.2889,-2.2891,-2.2907,-2.2909,-2.2911,-2.2929,-2.2929,-2.2936,-2.2945,-2.2942,-2.2941,-2.2947,-2.2931,-2.2939,-2.2938,-2.2937,-2.2934,-2.293,-2.2928,-2.2965,-2.2965,-2.2965,0,0,-2.284,-2.285,-2.2848,-2.2855,-2.2866,-2.2876,-2.2875,-2.2889,-2.2894,-2.2895,-2.2908,-2.291,-2.2916,-2.2921,-2.2925,-2.2907,-2.2917,-2.2908,-2.2894,-2.2889,-2.2887,-2.2884,-2.2876,-2.2874,-2.2907,-2.2907,-2.2907,0,-2.2826,-2.283,-2.2846,-2.2846,-2.285,-2.2868,-2.2865,-2.2871,-2.2883,-2.2884,-2.2891,-2.2898,-2.2906,-2.2903,-2.2899,-2.2902,-2.29,-2.2906,-2.2886,-2.2884,-2.2882,-2.2874,-2.2872,-2.2906,-2.2906,-2.2906,-2.2906,0,-2.2811,-2.2814,-2.2811,-2.2822,-2.2826,-2.2825,-2.2839,-2.2841,-2.285,-2.2858,-2.2857,-2.2867,-2.2872,-2.2873,-2.2882,-2.2871,-2.2874,-2.2883,-2.2895,-2.2877,-2.287,-2.2868,-2.2904,-2.2905,-2.2905,-2.2905,0,0,-2.278,-2.2799,-2.2797,-2.2801,-2.2814,-2.2816,-2.2815,-2.2821,-2.2822,-2.2829,-2.2827,-2.2832,-2.284,-2.2844,-2.2853,-2.285,-2.2833,-2.2859,-2.286,-2.2852,-2.2819,-2.2811,-2.2807,-2.284,-2.2839,-2.2839,-2.2818,0,-2.2763,-2.2763,-2.2776,-2.2773,-2.2774,-2.279,-2.2789,-2.2796,-2.2804,-2.2806,-2.2814,-2.2816,-2.2828,-2.283,-2.2827,-2.2836,-2.2826,-2.2838,-2.2837,-2.2836,-2.2832,-2.2804,-2.2795,-2.2775,-2.2815,-2.2815,-2.2815,0,-2.2743,-2.2749,-2.2745,-2.2757,-2.2758,-2.2757,-2.2762,-2.2765,-2.2772,-2.2778,-2.2782,-2.2792,-2.2791,-2.2803,-2.28,-2.2807,-2.2808,-2.2812,-2.2811,-2.281,-2.2823,-2.28,-2.2769,-2.2765,-2.2811,-2.2811,-2.2811,0,-2.2719,-2.2726,-2.2724,-2.2727,-2.2741,-2.274,-2.2745,-2.2754,-2.2756,-2.276,-2.2761,-2.2765,-2.2767,-2.277,-2.278,-2.2789,-2.2775,-2.2789,-2.2778,-2.2778,-2.2774,-2.2774,-2.274,-2.2777,-2.2777,-2.2777,-2.2777,0,-2.2697,-2.2694,-2.2713,-2.2711,-2.2707,-2.2722,-2.2717,-2.2724,-2.2731,-2.273,-2.2745,-2.2744,-2.2759,-2.2759,-2.2768,-2.2762,-2.2764,-2.2767,-2.2769,-2.2765,-2.2764,-2.2764,-2.2765,-2.2776,-2.2777,-2.2777,-2.2777,0,-2.2669,-2.2681,-2.268,-2.2693,-2.2696,-2.2692,-2.2703,-2.2701,-2.271,-2.2709,-2.2709,-2.2722,-2.2723,-2.2734,-2.2737,-2.2743,-2.2733,-2.2739,-2.2731,-2.2732,-2.272,-2.272,-2.2684,-2.2679,-2.2721,-2.272,-2.272,0,-2.2654,-2.2651,-2.2664,-2.2665,-2.2669,-2.2671,-2.2673,-2.2687,-2.2688,-2.2696,-2.2693,-2.2695,-2.2697,-2.2696,-2.2705,-2.2707,-2.2712,-2.2699,-2.2712,-2.2707,-2.2709,-2.2708,-2.2707,-2.2695,-2.2695,-2.2695,-2.2694,0,-2.2625,-2.2631,-2.2634,-2.2638,-2.264,-2.2644,-2.2649,-2.2648,-2.2663,-2.2664,-2.2665,-2.2666,-2.2669,-2.267,-2.2673,-2.2678,-2.2687,-2.269,-2.2687,-2.2682,-2.2676,-2.2677,-2.2721,-2.2691,-2.2691,-2.2691,-2.2691,-2.2692,-2.2601,-2.2599,-2.2607,-2.2609,-2.2614,-2.2618,-2.2617,-2.2625,-2.2626,-2.2629,-2.2638,-2.2636,-2.2642,-2.2648,-2.2651,-2.265,-2.2656,-2.2653,-2.2652,-2.265,-2.2647,-2.2678,-2.2651,-2.2651,-2.2651,-2.2651,-2.2651,0,-2.2572,-2.2577,-2.2579,-2.2585,-2.2586,-2.2596,-2.2602,-2.2601,-2.2601,-2.2606,-2.2607,-2.2607,-2.2608,-2.2616,-2.2617,-2.2614,-2.2619,-2.2614,-2.2613,-2.2614,-2.2642,-2.2643,-2.261,-2.261,-2.261,-2.261,-2.261,-2.261,-2.2556,-2.2552,-2.2559,-2.2557,-2.2563,-2.2562,-2.2564,-2.2567,-2.2571,-2.257,-2.2571,-2.2576,-2.2582,-2.2584,-2.2584,-2.2586,-2.2585,-2.2578,-2.2582,-2.2608,-2.2612,-2.2616,-2.2617,-2.2579,-2.2579,-2.2553,-2.2553,-2.2553]}]]